GW4950 Weather Reports


Display with metric or nautical units.
time (UTC)temp
F
wind
direction
speed
MPH
gust
MPH
rain 1hr
in
rain 24hr
in
rain mn
in
humidity
%
barometer
mb
20260507060015 52 56 4.0 11.0 0.00 0.00 0.00 75 1009.3
20260507054536 52 62 4.0 10.0 0.00 0.00 0.00 74 1009.1
20260507053022 52 64 1.0 9.0 0.00 0.00 0.00 74 1009.1
20260507051542 52 83 4.0 9.0 0.00 0.00 0.00 74 1009.1
20260507050035 52 44 6.0 10.0 0.00 0.00 0.00 74 1009.1
20260507044546 52 67 3.0 10.0 0.00 0.00 0.00 74 1009.3
20260507043041 52 29 5.0 8.0 0.00 0.00 0.00 74 1009.2
20260507041600 52 52 4.0 8.0 0.00 0.00 0.00 74 1009.3
20260507041506 52 50 4.0 8.0 0.00 0.00 0.00 74 1009.2
20260507040047 52 41 4.0 9.0 0.00 0.00 0.00 73 1009.3
20260507034530 52 40 4.0 8.0 0.00 0.00 0.00 73 1009.4
20260507033029 52 31 5.0 10.0 0.00 0.00 0.00 73 1009.4
20260507031533 52 17 6.0 11.0 0.00 0.00 0.00 72 1009.4
20260507030059 52 17 4.0 9.0 0.00 0.00 0.00 72 1009.6
20260507024554 51 35 4.0 10.0 0.00 0.00 0.00 71 1009.6
20260507023043 51 39 5.0 9.0 0.00 0.00 0.00 71 1009.6
20260507021503 51 39 7.0 11.0 0.00 0.00 0.00 71 1009.5
20260507020107 50 38 5.0 8.0 0.00 0.00 0.00 71 1009.6
20260507014516 51 29 6.0 11.0 0.00 0.00 0.00 70 1009.8
20260507013055 51 35 7.0 13.0 0.00 0.00 0.00 70 1009.8
20260507011557 51 53 4.0 14.0 0.00 0.00 0.00 68 1010.0
20260507011513 51 60 4.0 14.0 0.00 0.00 0.00 68 1009.9
20260507010051 51 36 5.0 8.0 0.00 0.00 0.00 67 1010.0
20260507004538 52 44 8.0 14.0 0.00 0.00 0.00 65 1009.9
20260507003011 53 57 8.0 15.0 0.00 0.00 0.00 62 1009.9
20260507001528 53 42 9.0 16.0 0.00 0.00 0.00 61 1009.7
20260507000039 53 62 6.0 11.0 0.00 0.00 0.00 62 1009.8
20260506234539 49 57 0.0 6.0 0.00 0.00 0.00 71 1009.8
20260506233023 48 342 0.0 0.0 0.00 0.00 0.00 73 1009.8
20260506231559 48 342 0.0 0.0 0.00 0.00 0.00 71 1009.8
20260506230057 47 342 0.0 0.0 0.00 0.00 0.00 73 1009.7
20260506224515 48 342 0.0 4.0 0.00 0.00 0.00 69 1009.6
20260506223059 47 342 1.0 4.0 0.00 0.00 0.00 71 1009.6
20260506221514 48 342 1.0 5.0 0.00 0.00 0.00 70 1009.6
20260506220011 47 6 0.0 3.0 0.00 0.00 0.00 70 1009.7
20260506214531 48 7 2.0 4.0 0.00 0.00 0.00 69 1009.7
20260506213019 49 13 4.0 7.0 0.00 0.00 0.00 68 1009.7
20260506211552 48 29 0.0 3.0 0.00 0.00 0.00 70 1009.7
20260506210035 48 31 0.0 3.0 0.00 0.00 0.00 69 1009.7
20260506204522 49 87 0.0 2.0 0.00 0.00 0.00 67 1009.6
20260506203025 50 100 0.0 3.0 0.00 0.00 0.00 64 1009.5
20260506201535 52 100 0.0 4.0 0.00 0.00 0.00 60 1009.5
20260506200047 54 116 0.0 0.0 0.00 0.00 0.00 55 1009.3
20260506194530 58 116 0.0 0.0 0.00 0.00 0.00 44 1009.3
20260506193021 58 116 0.0 0.0 0.00 0.00 0.00 44 1009.2
20260506191507 58 116 0.0 0.0 0.00 0.00 0.00 43 1009.2
20260506190058 59 116 0.0 4.0 0.00 0.00 0.00 42 1009.1
20260506184520 60 118 2.0 5.0 0.00 0.00 0.00 40 1009.1
20260506183016 60 125 2.0 6.0 0.00 0.00 0.00 39 1009.0
20260506181552 61 122 3.0 6.0 0.00 0.00 0.00 39 1008.9
20260506180049 61 117 3.0 7.0 0.00 0.00 0.00 38 1009.0
20260506174508 62 121 1.0 9.0 0.00 0.00 0.00 39 1009.0
20260506173108 63 137 2.0 6.0 0.00 0.00 0.00 38 1009.0
20260506171506 62 111 0.0 7.0 0.00 0.00 0.00 39 1009.1
20260506170107 62 73 0.0 6.0 0.00 0.00 0.00 38 1009.1
20260506164508 62 158 2.0 7.0 0.00 0.00 0.00 37 1009.2
20260506163002 64 118 3.0 9.0 0.00 0.00 0.00 37 1009.2
20260506161516 63 14 0.0 8.0 0.00 0.00 0.00 38 1009.2
20260506160011 63 159 4.0 10.0 0.00 0.00 0.00 37 1009.3
20260506154532 65 11 1.0 10.0 0.00 0.00 0.00 38 1009.4
20260506153020 64 100 2.0 7.0 0.00 0.00 0.00 39 1009.5
20260506151602 63 115 1.0 9.0 0.00 0.00 0.00 39 1009.6
20260506151506 63 110 1.0 9.0 0.00 0.00 0.00 38 1009.6
20260506150046 63 212 1.0 9.0 0.00 0.00 0.00 39 1009.8
20260506144514 62 176 5.0 11.0 0.00 0.00 0.00 41 1010.0
20260506143004 63 217 2.0 9.0 0.00 0.00 0.00 42 1010.2
20260506141540 62 227 3.0 10.0 0.00 0.00 0.00 41 1010.3
20260506140022 62 183 6.0 11.0 0.00 0.00 0.00 43 1010.5
20260506134536 63 139 2.0 6.0 0.00 0.00 0.00 44 1010.6
20260506133029 60 210 4.0 10.0 0.00 0.00 0.00 43 1010.7
20260506131547 61 271 0.0 6.0 0.00 0.00 0.00 47 1010.8
20260506130036 60 140 0.0 8.0 0.00 0.00 0.00 48 1011.0
20260506124557 60 154 5.0 11.0 0.00 0.00 0.00 47 1011.1
20260506123036 62 150 2.0 7.0 0.00 0.00 0.00 47 1011.2
20260506121553 59 100 4.0 8.0 0.00 0.00 0.00 48 1011.3
20260506120045 59 141 1.0 8.0 0.00 0.00 0.00 52 1011.4
20260506114508 59 144 5.0 12.0 0.00 0.00 0.00 50 1011.6
20260506113057 58 92 1.0 7.0 0.00 0.00 0.00 47 1011.7
20260506111535 58 75 1.0 8.0 0.00 0.00 0.00 51 1011.8
20260506110021 58 99 1.0 10.0 0.00 0.00 0.00 52 1011.9
20260506104538 57 173 1.0 10.0 0.00 0.00 0.00 55 1012.0
20260506103025 55 150 0.0 7.0 0.00 0.00 0.00 55 1012.1
20260506101541 56 110 4.0 8.0 0.00 0.00 0.00 58 1012.1
20260506100029 56 177 2.0 7.0 0.00 0.00 0.00 56 1012.3
20260506094539 55 162 3.0 10.0 0.00 0.00 0.00 57 1012.2
20260506093029 54 103 2.0 6.0 0.00 0.00 0.00 60 1012.2
20260506091545 54 179 3.0 8.0 0.00 0.00 0.00 61 1012.2
20260506090041 53 102 1.0 5.0 0.00 0.00 0.00 64 1012.2
20260506084609 53 218 3.0 6.0 0.00 0.00 0.00 64 1012.2
20260506083041 53 117 3.0 5.0 0.00 0.00 0.00 65 1012.2
20260506081547 51 119 3.0 6.0 0.00 0.00 0.00 64 1012.2
20260506073035 49 146 0.0 5.0 0.00 0.00 0.00 69 1012.1
20260506071527 49 141 2.0 5.0 0.00 0.00 0.00 69 1012.1
20260506061546 42 8 2.0 4.0 0.00 0.00 0.00 85 1011.8